Location: Newark
(60.5925°N, 45.5911°E)
Time: 23:44:20
(UTC+00:00)

Envisat - Pass Details

Date: 24 September 2019
Orbit: 764 x 766 km, 98.1° (Epoch: 14 October)

Event Time Altitude Azimuth Distance (km) Brightness Sun altitude
Rises 16:59:42 0° 230° (SW) 3,231 6.5 -15.8°
Reaches altitude 10° 17:03:48 10° 263° (W) 2,311 6.3 -16.2°
Maximum altitude 17:05:31 12° 283° (WNW) 2,204 6.5 -16.4°
Drops below altitude 10° 17:07:14 10° 303° (WNW) 2,316 6.8 -16.6°
Sets 17:11:22 0° 336° (NNW) 3,249 7.2 -17.0°
